Oakdale, LA

12:36 AM CST on January 20, 2017 (GMT -0600)
Oakdale

Weather History for KACP - July, 2013

Change the Weather History Date:

Friday, July 5, 2013

  Actual Average (KPOE) Record (KPOE)
Temperature  
Mean Temperature 78 °F -  
Max Temperature 91 °F 89 °F 96 °F (1998)
Min Temperature 64 °F 71 °F 68 °F (2014)
Cooling Degree Days 12    
Growing Degree Days 28 (Base 50)    
Moisture  
Dew Point 67 °F    
Average Humidity 77    
Maximum Humidity 96    
Minimum Humidity 41    
Precipitation  
Precipitation 0.00 in - - ()
Sea Level Pressure  
Sea Level Pressure 29.96 in    
Wind  
Wind Speed 2 mph (ENE)    
Max Wind Speed 17 mph    
Max Gust Speed 22 mph    
Visibility 8 miles    
Events      
Averages and records for this station are not official NWS values.
T = Trace of Precipitation, MM = Missing Value Source: NWS Daily Summary

Daily Weather History Graph

Daily Weather History Graph

Search for Another Location

Airport or City:

Trip Planner

Search our weather history database for the weather conditions in past years. The results will help you decide how hot, cold, wet, or windy it might be!

Date:

Astronomy

Jul. 05, 2013 Rise Set
Actual Time 6:13 AM CDT 8:17 PM CDT
Civil Twilight 5:45 AM CDT 8:44 PM CDT
Nautical Twilight 5:12 AM CDT 9:18 PM CDT
Astronomical Twilight 4:36 AM CDT 9:54 PM CDT
Moon 4:09 AM CDT (7/5) 6:16 PM CDT (7/5)
Length of Visible Light 14h 59m
Length of Day
14h 04m
Waning Crescent, 6% of the Moon is Illuminated
Jul 5
Waning Crescent
Jul 8
New
Jul 15
First Quarter
Jul 22
Full
Jul 29
Last Quarter

Hourly Weather History & Observations

Time (CDT) Temp. Heat Index Dew Point Humidity Pressure Visibility Wind Dir Wind Speed Gust Speed Precip Events Conditions
12:15 AM 67.5 °F - 66.2 °F 96% 29.98 in 4.0 mi Calm Calm - N/A   Clear
12:35 AM 67.1 °F - 65.5 °F 95% 29.98 in 5.0 mi Calm Calm - N/A   Clear
12:55 AM 67.1 °F - 65.8 °F 96% 29.98 in 5.0 mi Calm Calm - N/A   Clear
1:15 AM 66.7 °F - 65.5 °F 96% 29.97 in 4.0 mi Calm Calm - N/A   Clear
1:35 AM 66.2 °F - 64.8 °F 95% 29.98 in 5.0 mi Calm Calm - N/A   Scattered Clouds
1:55 AM 67.1 °F - 65.5 °F 95% 29.97 in 5.0 mi Calm Calm - N/A   Mostly Cloudy
2:15 AM 66.2 °F - 64.6 °F 94% 29.97 in 7.0 mi Calm Calm - N/A   Scattered Clouds
2:35 AM 66.4 °F - 64.9 °F 95% 29.97 in 5.0 mi Calm Calm - N/A   Clear
2:55 AM 66.0 °F - 64.6 °F 95% 29.97 in 4.0 mi Calm Calm - N/A   Clear
3:15 AM 65.5 °F - 64.0 °F 95% 29.96 in 4.0 mi Calm Calm - N/A   Clear
3:35 AM 65.5 °F - 64.0 °F 95% 29.96 in 4.0 mi Calm Calm - N/A   Clear
3:55 AM 65.1 °F - 63.9 °F 96% 29.96 in 3.0 mi Calm Calm - N/A   Clear
4:15 AM 65.5 °F - 64.2 °F 96% 29.96 in 4.0 mi Calm Calm - N/A   Clear
4:35 AM 64.6 °F - 63.0 °F 94% 29.96 in 5.0 mi Calm Calm - N/A   Clear
4:55 AM 64.6 °F - 63.5 °F 96% 29.97 in 4.0 mi Calm Calm - N/A   Clear
5:15 AM 64.6 °F - 63.5 °F 96% 29.97 in 4.0 mi Calm Calm - N/A   Clear
5:35 AM 64.0 °F - 62.6 °F 95% 29.97 in 4.0 mi Calm Calm - N/A   Clear
5:55 AM 64.2 °F - 62.6 °F 94% 29.98 in 3.0 mi Calm Calm - N/A   Clear
6:15 AM 64.4 °F - 63.0 °F 95% 29.98 in 2.5 mi Calm Calm - N/A   Clear
6:35 AM 64.6 °F - 63.5 °F 96% 29.97 in 2.5 mi Calm Calm - N/A   Clear
6:55 AM 65.5 °F - 64.2 °F 96% 29.97 in 3.0 mi Calm Calm - N/A   Clear
7:15 AM 67.1 °F - 65.3 °F 94% 29.98 in 4.0 mi Calm Calm - N/A   Clear
7:35 AM 69.3 °F - 66.9 °F 92% 29.98 in 7.0 mi Calm Calm - N/A   Clear
7:55 AM 72.5 °F - 67.5 °F 84% 29.98 in 7.0 mi North 3.5 mph - N/A   Clear
8:15 AM 73.4 °F - 68.4 °F 84% 29.98 in 7.0 mi Calm Calm - N/A   Clear
8:35 AM 75.6 °F - 68.7 °F 79% 29.98 in 10.0 mi NNE 3.5 mph - N/A   Clear
8:55 AM 77.7 °F - 70.2 °F 77% 29.98 in 10.0 mi Calm Calm - N/A   Clear
9:15 AM 79.7 °F - 70.5 °F 73% 29.98 in 10.0 mi NE 3.5 mph - N/A   Clear
9:35 AM 81.7 °F 85.8 °F 70.9 °F 70% 29.99 in 10.0 mi NNE 4.6 mph - N/A   Clear
9:55 AM 83.7 °F 88.6 °F 71.1 °F 66% 29.99 in 10.0 mi ENE 5.8 mph - N/A   Clear
10:15 AM 84.2 °F 89.0 °F 70.9 °F 64% 30.00 in 10.0 mi NE 4.6 mph - N/A   Clear
10:35 AM 85.3 °F 90.8 °F 71.6 °F 63% 30.00 in 10.0 mi NE 5.8 mph - N/A   Clear
10:55 AM 85.6 °F 90.4 °F 70.5 °F 60% 30.00 in 10.0 mi NNE 8.1 mph - N/A   Clear
11:15 AM 86.7 °F 91.0 °F 69.4 °F 56% 30.00 in 10.0 mi NE 5.8 mph - N/A   Clear
11:35 AM 87.8 °F 93.0 °F 70.3 °F 56% 29.99 in 10.0 mi NE 5.8 mph - N/A   Clear
11:55 AM 87.8 °F 91.4 °F 68.0 °F 52% 29.99 in 10.0 mi North 6.9 mph - N/A   Scattered Clouds
12:15 PM 88.2 °F 91.7 °F 67.8 °F 51% 29.99 in 10.0 mi NNE 4.6 mph - N/A   Clear
12:35 PM 89.1 °F 92.5 °F 67.5 °F 49% 29.99 in 10.0 mi East 4.6 mph - N/A   Clear
12:55 PM 89.4 °F 92.3 °F 66.9 °F 47% 29.99 in 10.0 mi North 5.8 mph - N/A   Scattered Clouds
1:15 PM 89.1 °F 92.1 °F 67.1 °F 48% 29.98 in 10.0 mi NE 6.9 mph - N/A   Scattered Clouds
1:35 PM 89.6 °F 92.6 °F 66.7 °F 47% 29.97 in 10.0 mi ENE 3.5 mph - N/A   Clear
1:55 PM 89.6 °F 93.0 °F 67.3 °F 48% 29.96 in 10.0 mi NE 6.9 mph - N/A   Scattered Clouds
2:15 PM 90.3 °F 92.6 °F 65.8 °F 44% 29.94 in 10.0 mi NNE 9.2 mph - N/A   Clear
2:35 PM 90.1 °F 92.7 °F 66.0 °F 45% 29.94 in 10.0 mi NE 6.9 mph - N/A   Clear
2:55 PM 90.3 °F 92.2 °F 64.9 °F 43% 29.93 in 10.0 mi NNE 6.9 mph - N/A   Clear
3:15 PM 90.7 °F 92.4 °F 64.6 °F 42% 29.93 in 10.0 mi ENE 3.5 mph - N/A   Clear
3:35 PM 90.1 °F 92.3 °F 65.5 °F 44% 29.92 in 10.0 mi ENE 3.5 mph - N/A   Scattered Clouds
3:55 PM 91.2 °F 92.9 °F 64.2 °F 41% 29.93 in 10.0 mi NE 9.2 mph - N/A   Scattered Clouds
4:15 PM 91.4 °F 94.0 °F 66.2 °F 43% 29.93 in 10.0 mi ENE 6.9 mph - N/A   Scattered Clouds
4:35 PM 87.8 °F 93.8 °F 71.6 °F 58% 29.93 in 10.0 mi East 5.8 mph - N/A   Mostly Cloudy
4:55 PM 86.0 °F 90.7 °F 70.2 °F 59% 29.93 in 10.0 mi SE 17.3 mph 21.9 mph N/A   Overcast
5:15 PM 82.0 °F 84.9 °F 67.6 °F 62% 29.93 in 10.0 mi SE 11.5 mph 20.7 mph N/A   Mostly Cloudy
5:35 PM 79.7 °F - 68.0 °F 67% 29.93 in 10.0 mi SSE 9.2 mph - N/A   Scattered Clouds
5:55 PM 80.2 °F 83.3 °F 69.6 °F 70% 29.94 in 10.0 mi East 4.6 mph - N/A   Scattered Clouds
6:15 PM 81.0 °F 84.2 °F 69.4 °F 68% 29.94 in 10.0 mi ESE 4.6 mph - N/A   Overcast
6:35 PM 80.6 °F 83.8 °F 69.6 °F 69% 29.93 in 10.0 mi ESE 4.6 mph - N/A   Scattered Clouds
6:55 PM 80.8 °F 83.9 °F 69.3 °F 68% 29.94 in 10.0 mi ESE 4.6 mph - N/A   Clear
7:15 PM 79.3 °F - 69.8 °F 72% 29.95 in 10.0 mi East 4.6 mph - N/A   Scattered Clouds
7:35 PM 78.6 °F - 70.5 °F 76% 29.94 in 10.0 mi Calm Calm - N/A   Scattered Clouds
7:55 PM 77.0 °F - 70.9 °F 81% 29.94 in 10.0 mi Calm Calm - N/A   Clear
8:15 PM 75.7 °F - 70.2 °F 83% 29.94 in 10.0 mi Calm Calm - N/A   Clear
8:35 PM 74.5 °F - 70.0 °F 86% 29.95 in 10.0 mi Calm Calm - N/A   Clear
8:55 PM 74.3 °F - 70.2 °F 87% 29.95 in 10.0 mi Calm Calm - N/A   Clear
9:15 PM 72.5 °F - 70.2 °F 92% 29.96 in 10.0 mi Calm Calm - N/A   Clear
9:35 PM 71.8 °F - 69.8 °F 93% 29.96 in 10.0 mi Calm Calm - N/A   Clear
9:55 PM 71.4 °F - 69.6 °F 94% 29.96 in 7.0 mi Calm Calm - N/A   Clear
10:15 PM 70.9 °F - 69.3 °F 95% 29.97 in 7.0 mi Calm Calm - N/A   Clear
10:35 PM 70.9 °F - 69.3 °F 95% 29.97 in 7.0 mi Calm Calm - N/A   Scattered Clouds
10:55 PM 71.2 °F - 69.3 °F 93% 29.98 in 7.0 mi Calm Calm - N/A   Scattered Clouds
11:15 PM 70.5 °F - 68.9 °F 95% 29.97 in 7.0 mi Calm Calm - N/A   Clear
11:35 PM 69.8 °F - 68.2 °F 95% 29.98 in 5.0 mi Calm Calm - N/A   Clear
11:55 PM 69.4 °F - 68.2 °F 96% 29.98 in 3.0 mi Calm Calm - N/A   Clear